| time (UTC) | temp C | wind direction | speed KPH | gust KPH | rain 1hr cm | rain 24hr cm | rain mn cm | humidity % | barometer mb |
| 20260510092629 | 11 | 214 | 0.0 | 0.0 | 0.00 | 0.13 | 0.00 | 66 | 1012.8 |
| 20260510091628 | 11 | 214 | 0.0 | 0.0 | 0.00 | 0.13 | 0.00 | 66 | 1012.8 |
| 20260510091132 | 11 | 214 | 0.0 | 0.0 | 0.00 | 0.13 | 0.00 | 66 | 1012.7 |
| 20260510085627 | 11 | 214 | 0.0 | 0.0 | 0.00 | 0.13 | 0.00 | 66 | 1012.7 |
| 20260510084627 | 11 | 214 | 0.0 | 0.0 | 0.00 | 0.13 | 0.00 | 66 | 1012.6 |
| 20260510083626 | 11 | 214 | 0.0 | 1.6 | 0.00 | 0.13 | 0.00 | 66 | 1012.7 |
| 20260510083128 | 11 | 214 | 0.0 | 0.0 | 0.00 | 0.13 | 0.00 | 66 | 1012.6 |
| 20260510081627 | 11 | 214 | 0.0 | 1.6 | 0.00 | 0.13 | 0.00 | 66 | 1012.7 |
| 20260510080632 | 11 | 214 | 0.0 | 1.6 | 0.00 | 0.13 | 0.00 | 67 | 1012.6 |
| 20260510080626 | 11 | 214 | 0.0 | 1.6 | 0.00 | 0.13 | 0.00 | 66 | 1012.7 |
| 20260510074626 | 11 | 229 | 0.0 | 1.6 | 0.00 | 0.13 | 0.00 | 67 | 1012.5 |
| 20260510073624 | 12 | 201 | 0.0 | 3.2 | 0.00 | 0.13 | 0.00 | 67 | 1012.5 |
| 20260510072623 | 12 | 229 | 0.0 | 1.6 | 0.00 | 0.13 | 0.00 | 66 | 1012.5 |
| 20260510071622 | 12 | 197 | 0.0 | 1.6 | 0.00 | 0.13 | 0.00 | 66 | 1012.2 |
| 20260510070622 | 12 | 197 | 0.0 | 1.6 | 0.00 | 0.13 | 0.00 | 67 | 1012.2 |
| 20260510070125 | 12 | 198 | 0.0 | 1.6 | 0.00 | 0.13 | 0.00 | 67 | 1012.0 |
| 20260510064622 | 12 | 148 | 0.0 | 1.6 | 0.00 | 0.13 | 0.00 | 67 | 1012.2 |
| 20260510063624 | 12 | 170 | 0.0 | 1.6 | 0.00 | 0.13 | 0.00 | 67 | 1012.0 |
| 20260510062622 | 12 | 203 | 0.0 | 3.2 | 0.00 | 0.13 | 0.00 | 67 | 1012.1 |
| 20260510061619 | 12 | 200 | 0.0 | 1.6 | 0.00 | 0.13 | 0.00 | 67 | 1012.1 |
| 20260510060620 | 12 | 196 | 0.0 | 4.8 | 0.00 | 0.13 | 0.00 | 68 | 1012.2 |
| 20260510055620 | 12 | 232 | 0.0 | 3.2 | 0.00 | 0.13 | 0.00 | 68 | 1012.2 |
| 20260510054618 | 12 | 238 | 0.0 | 3.2 | 0.00 | 0.13 | 0.00 | 67 | 1012.2 |
| 20260510053619 | 12 | 221 | 0.0 | 3.2 | 0.00 | 0.13 | 0.00 | 67 | 1012.2 |
| 20260510052620 | 12 | 199 | 1.6 | 4.8 | 0.00 | 0.13 | 0.00 | 67 | 1012.2 |
| 20260510051619 | 12 | 197 | 0.0 | 4.8 | 0.00 | 0.13 | 0.00 | 67 | 1012.1 |
| 20260510051128 | 12 | 153 | 1.6 | 4.8 | 0.00 | 0.13 | 0.00 | 68 | 1012.0 |
| 20260510045617 | 12 | 200 | 0.0 | 4.8 | 0.00 | 0.13 | 0.00 | 67 | 1012.0 |
| 20260510044614 | 12 | 135 | 1.6 | 6.4 | 0.00 | 0.13 | 0.00 | 67 | 1012.1 |
| 20260510043614 | 12 | 173 | 1.6 | 6.4 | 0.00 | 0.13 | 0.00 | 67 | 1012.2 |
| 20260510042615 | 12 | 167 | 0.0 | 4.8 | 0.00 | 0.13 | 0.00 | 67 | 1012.3 |
| 20260510041614 | 12 | 179 | 0.0 | 8.0 | 0.00 | 0.13 | 0.00 | 67 | 1012.3 |
| 20260510040616 | 12 | 137 | 1.6 | 4.8 | 0.03 | 0.13 | 0.00 | 67 | 1012.4 |
| 20260510035614 | 11 | 199 | 0.0 | 4.8 | 0.03 | 0.13 | 0.38 | 68 | 1012.4 |
| 20260510035125 | 11 | 212 | 0.0 | 3.2 | 0.05 | 0.13 | 0.38 | 68 | 1012.3 |
| 20260510033613 | 11 | 212 | 0.0 | 4.8 | 0.05 | 0.13 | 0.38 | 69 | 1012.0 |
| 20260510032612 | 11 | 125 | 0.0 | 3.2 | 0.05 | 0.13 | 0.38 | 70 | 1012.1 |
| 20260510031612 | 11 | 107 | 0.0 | 0.0 | 0.05 | 0.13 | 0.38 | 70 | 1012.2 |
| 20260510030613 | 11 | 107 | 0.0 | 1.6 | 0.03 | 0.10 | 0.36 | 71 | 1012.3 |
| 20260510025611 | 11 | 122 | 0.0 | 6.4 | 0.03 | 0.10 | 0.36 | 71 | 1012.6 |
| 20260510024610 | 11 | 116 | 0.0 | 1.6 | 0.03 | 0.08 | 0.33 | 71 | 1012.6 |
| 20260510023610 | 11 | 123 | 0.0 | 1.6 | 0.03 | 0.08 | 0.33 | 70 | 1012.8 |
| 20260510022611 | 11 | 134 | 0.0 | 6.4 | 0.03 | 0.08 | 0.33 | 70 | 1012.9 |
| 20260510021608 | 11 | 119 | 0.0 | 3.2 | 0.03 | 0.08 | 0.33 | 70 | 1013.2 |
| 20260510020607 | 11 | 142 | 0.0 | 4.8 | 0.03 | 0.08 | 0.33 | 70 | 1013.4 |
| 20260510020109 | 11 | 118 | 0.0 | 3.2 | 0.05 | 0.08 | 0.33 | 70 | 1013.4 |
| 20260510015106 | 11 | 135 | 0.0 | 1.6 | 0.03 | 0.05 | 0.30 | 70 | 1013.6 |
| 20260510013605 | 11 | 194 | 0.0 | 1.6 | 0.05 | 0.05 | 0.30 | 70 | 1013.9 |
| 20260510012607 | 11 | 149 | 0.0 | 1.6 | 0.05 | 0.05 | 0.30 | 71 | 1013.8 |
| 20260510011605 | 11 | 206 | 0.0 | 1.6 | 0.05 | 0.05 | 0.30 | 71 | 1014.0 |
| 20260510010606 | 11 | 135 | 0.0 | 1.6 | 0.05 | 0.05 | 0.30 | 71 | 1014.1 |
| 20260510005604 | 11 | 193 | 0.0 | 3.2 | 0.03 | 0.03 | 0.28 | 71 | 1014.3 |
| 20260510004603 | 11 | 166 | 0.0 | 4.8 | 0.03 | 0.03 | 0.28 | 71 | 1014.3 |
| 20260510003604 | 11 | 197 | 0.0 | 3.2 | 0.00 | 0.00 | 0.25 | 71 | 1014.3 |
| 20260510002602 | 11 | 198 | 0.0 | 0.0 | 0.00 | 0.00 | 0.25 | 71 | 1014.1 |